Theta_e
349 350 349 349 349 348 348 348 347 346 346 347 348 349 350 350 351 351 352 352 352 352 352 351 351 351 350 351 350 350 350 350 350 350 350 350 350 350 350 350 351 351 351 351 350 351 351 350 350 349 349 349 350 350 350 351 351 350 347 344 344 347 351
349 350 349 349 349 349 349 348 346 346 346 346 347 348 350 350 350 351 351 351 352 351 352 352 351 352 351 351 351 351 351 350 350 350 350 350 350 350 350 350 351 351 351 350 351 350 350 351 350 349 349 349 350 350 350 351 352 351 349 346 345 347 350
348 350 349 349 350 349 349 348 346 347 346 346 346 347 349 349 350 351 351 352 352 351 352 352 352 352 352 352 351 351 351 351 350 350 350 350 350 350 350 351 350 350 351 350 350 350 350 351 350 350 350 349 350 351 350 351 351 352 351 349 347 347 350
348 348 349 349 350 349 349 349 347 347 346 347 346 347 348 349 350 350 351 351 352 351 351 352 352 352 352 352 352 352 351 352 351 351 351 350 350 350 351 351 350 351 351 350 350 349 349 350 350 350 350 350 350 351 350 350 351 352 351 351 349 348 349
347 348 349 348 349 349 349 349 347 346 347 347 347 347 347 348 349 349 350 351 351 351 351 351 352 352 352 352 352 352 352 352 352 352 351 351 351 351 351 351 351 351 350 350 350 349 349 348 349 349 350 350 350 350 350 350 350 351 352 351 350 349 350
346 346 348 347 347 348 349 348 347 347 347 347 347 347 347 348 348 349 349 350 351 351 351 351 351 352 352 352 352 352 352 352 352 352 352 351 351 351 351 351 351 351 351 350 350 349 349 348 347 348 348 349 348 349 351 351 350 351 351 351 351 349 350
345 346 346 347 346 347 347 347 348 347 347 347 347 347 348 347 348 348 349 350 350 351 351 351 352 352 352 352 352 352 352 352 352 352 352 351 351 352 351 351 351 351 351 350 350 350 349 349 349 348 347 347 348 349 350 350 351 351 352 352 352 351 350
345 346 345 345 346 346 347 348 348 347 347 347 347 347 347 348 348 348 349 349 350 351 351 351 352 352 352 352 352 352 353 352 352 352 352 352 352 352 351 351 351 351 351 351 350 350 349 349 349 349 348 349 349 350 351 350 350 350 351 352 352 352 351
344 346 345 345 344 343 346 347 347 347 347 347 347 347 348 347 348 348 348 349 349 350 350 351 352 352 352 353 352 352 352 352 352 352 352 352 352 352 351 351 351 351 351 350 350 350 349 349 350 350 350 349 349 350 350 350 351 351 351 352 352 352 352
344 345 346 345 344 344 346 346 348 348 347 347 347 347 348 348 348 349 348 349 350 350 350 350 351 351 352 353 352 353 353 353 353 352 352 352 352 352 352 351 351 350 351 350 350 350 350 349 350 350 351 350 351 351 351 351 351 351 352 352 352 352 352
342 345 347 347 346 347 346 348 350 351 348 347 347 348 348 348 348 349 349 349 349 349 350 350 350 351 352 352 352 353 352 353 353 352 352 352 352 352 352 351 351 351 350 351 351 350 350 350 350 350 351 351 351 351 351 350 351 352 352 352 352 352 352
342 345 348 348 348 347 348 350 352 353 350 348 346 347 348 348 349 349 349 349 349 350 350 350 351 350 351 352 352 353 353 352 352 352 352 353 352 352 352 351 351 350 350 350 350 350 350 350 351 351 351 351 351 351 350 351 351 351 352 353 353 353 353
344 344 346 348 348 349 350 352 352 352 350 347 347 348 348 348 349 349 349 350 350 350 350 350 351 350 351 352 351 352 352 352 352 352 352 352 352 352 352 351 351 351 351 351 351 351 350 351 351 351 351 351 351 351 351 351 352 352 352 353 353 353 353
344 343 344 346 348 351 352 352 353 353 351 348 347 347 348 348 350 350 350 350 350 350 350 350 350 350 351 351 351 351 352 352 352 352 352 352 351 352 352 351 351 351 351 351 350 350 351 351 351 351 351 352 351 351 352 352 352 352 352 352 352 352 353
342 342 342 346 349 351 352 352 354 353 351 349 347 347 349 349 349 350 350 351 351 351 351 351 351 350 351 351 351 352 352 352 352 352 352 352 351 352 352 351 352 351 351 351 351 351 351 351 351 352 351 351 352 352 352 353 352 352 352 352 352 352 353
338 341 342 346 347 349 351 351 353 353 352 351 348 347 348 348 349 350 350 350 351 351 351 352 351 351 351 351 351 351 351 352 352 352 352 352 351 352 352 352 352 351 351 352 351 352 351 351 352 352 352 352 352 353 353 353 352 352 352 352 352 353 353
338 342 342 345 347 348 350 352 352 353 354 352 349 348 349 348 349 349 350 351 352 352 352 352 352 351 351 351 352 351 352 352 352 353 352 352 352 352 352 352 351 351 351 352 352 351 352 351 351 351 352 353 353 353 353 353 353 353 352 353 352 353 353
340 345 345 345 348 348 350 351 352 353 352 350 348 349 349 350 349 350 350 351 351 352 352 352 352 353 352 353 352 352 352 353 352 353 353 352 353 352 352 352 352 352 352 352 352 352 351 351 351 351 351 352 352 353 353 353 353 353 353 353 353 353 353
343 344 346 346 348 349 349 349 350 352 350 349 348 348 349 350 350 350 351 351 352 352 353 354 354 353 353 353 353 353 353 353 353 353 353 353 353 353 353 352 353 353 353 352 352 352 352 352 351 352 352 351 351 352 353 352 353 353 353 353 353 353 354
346 344 345 347 347 348 349 349 350 349 348 348 348 349 350 350 350 351 351 352 352 353 353 354 354 354 354 354 354 353 354 354 354 354 354 354 354 353 353 353 353 353 353 353 353 352 352 352 352 352 352 351 352 351 351 352 352 352 352 352 353 353 353
352 351 348 348 347 349 350 351 352 350 347 349 349 348 349 350 350 351 351 352 352 353 354 355 355 355 355 355 354 354 355 355 354 355 354 354 354 355 354 354 354 354 353 353 353 353 353 353 353 353 352 352 352 352 351 351 351 351 351 351 352 353 353
357 353 351 349 350 353 352 349 349 348 348 348 349 349 349 349 350 351 351 352 352 354 355 355 356 356 356 356 355 355 356 355 355 355 355 355 355 354 354 355 354 354 354 353 353 353 353 353 353 353 353 353 352 352 352 352 351 351 351 351 352 352 353
361 355 356 352 349 348 347 345 345 347 348 348 349 348 349 349 350 351 351 352 352 353 355 355 357 357 357 357 357 356 356 356 356 356 356 356 356 355 355 355 355 355 354 354 354 354 353 353 353 353 353 353 353 352 352 353 352 352 351 352 352 352 353
359 358 359 355 350 346 344 345 346 347 347 348 348 348 349 349 350 351 351 352 352 353 354 355 356 356 357 357 357 357 357 357 357 357 357 356 356 356 356 355 355 355 355 354 354 353 354 354 353 353 353 353 353 353 352 353 352 352 352 352 352 353 352
359 359 357 353 351 349 346 347 348 347 347 348 347 348 349 350 350 351 351 352 352 353 354 355 357 356 357 357 357 358 358 357 357 358 357 357 357 356 357 356 356 356 356 355 355 355 354 354 354 354 353 353 353 353 353 353 353 353 352 352 353 353 353
357 359 358 355 353 353 352 351 351 350 349 349 347 349 349 350 350 351 352 352 352 353 354 355 356 356 357 357 357 358 358 358 359 358 358 358 358 358 357 357 357 357 356 356 356 355 355 355 354 354 354 353 354 353 353 353 353 353 354 353 353 353 353
354 355 357 357 357 357 357 356 357 357 357 355 352 349 348 350 351 352 352 352 352 353 354 354 356 357 358 358 358 359 359 359 359 359 359 359 358 358 358 358 358 358 358 357 356 356 356 356 355 355 354 354 354 353 353 354 353 353 353 353 353 353 353
352 353 354 354 356 356 356 358 358 358 360 360 357 352 350 351 354 355 354 354 355 357 356 356 356 356 357 359 360 360 360 360 359 360 359 359 359 359 359 359 358 358 358 357 357 357 357 357 356 355 355 355 354 354 354 354 354 354 354 353 353 353 353
349 351 352 352 353 354 354 355 355 354 357 359 358 356 354 355 357 358 357 357 359 362 361 360 358 357 357 357 359 359 361 361 361 362 361 360 361 360 360 360 359 359 359 358 358 358 357 357 357 356 356 355 355 354 354 354 354 354 353 354 353 353 354
347 349 351 350 351 351 351 351 351 351 352 354 356 358 357 358 357 356 356 357 360 363 364 364 364 362 361 359 357 358 360 360 362 363 362 362 362 361 361 361 360 360 360 359 358 358 357 357 357 356 356 355 355 355 355 354 354 354 354 354 353 353 353
346 347 348 349 349 349 349 349 349 349 348 349 351 354 355 356 356 353 353 355 359 362 364 365 365 366 365 364 361 359 358 360 361 362 363 363 363 363 362 362 361 361 360 360 359 359 358 358 357 357 356 356 355 355 355 355 355 355 354 354 354 354 354
344 345 346 347 348 348 348 348 348 347 347 347 347 348 350 351 352 350 350 352 356 361 363 364 365 366 366 367 366 363 359 359 360 361 362 362 363 363 363 363 362 362 361 360 360 359 359 358 357 357 356 356 356 356 355 355 355 354 354 354 354 354 354
344 344 344 346 347 347 347 347 347 347 346 345 345 346 346 347 348 348 349 350 353 357 361 363 364 365 365 366 367 366 361 358 358 360 361 362 363 363 363 364 363 362 361 361 360 359 358 358 358 357 356 356 356 356 356 355 355 355 355 355 355 355 355
343 344 344 345 347 348 347 346 346 346 345 344 345 345 345 346 347 347 348 350 351 354 358 361 363 364 365 366 367 368 365 360 358 358 359 361 362 362 363 363 363 363 362 361 361 360 359 359 358 357 357 357 357 356 356 356 355 356 356 356 357 356 357
342 342 344 345 346 346 347 345 345 345 344 344 345 345 346 347 347 348 348 350 351 354 356 360 361 364 364 365 367 368 366 363 359 358 358 359 360 359 359 360 361 362 362 362 361 361 360 360 360 359 358 358 358 357 357 357 357 358 358 359 359 358 359
341 342 343 344 345 347 346 346 345 345 344 344 345 346 346 347 348 348 349 349 351 354 356 359 362 363 365 365 367 368 367 363 361 360 360 358 357 355 353 353 356 358 360 360 362 362 361 361 361 360 360 359 359 359 359 359 360 361 360 360 360 360 360
341 342 343 344 345 345 345 345 345 344 344 344 345 345 345 346 348 348 348 349 351 354 357 360 362 364 364 365 368 369 367 364 362 361 359 357 355 353 350 350 352 355 358 359 361 361 362 362 362 362 362 362 361 361 361 361 361 361 361 361 361 361 361
340 342 343 343 343 343 343 344 343 342 342 344 344 344 345 346 346 347 349 350 352 355 359 360 361 363 363 365 368 368 365 364 362 360 356 353 351 351 351 352 351 350 352 356 360 361 362 363 363 363 363 363 363 363 362 361 361 361 361 361 360 360 360
Wind_Speed
15 15 14 14 14 15 16 17 20 23 26 29 31 34 36 36 36 36 36 39 40 39 40 40 40 40 40 40 41 40 38 37 36 35 35 34 33 32 32 31 31 31 31 31 31 31 30 28 26 26 25 24 24 24 22 20 19 19 19 20 20 20 18
13 13 14 13 13 15 17 18 21 24 26 28 31 33 35 37 38 38 38 39 41 41 41 41 40 40 40 41 40 39 39 38 37 35 34 33 33 33 33 32 32 32 32 32 32 31 30 29 27 26 25 24 24 24 23 21 20 19 19 20 21 20 20
15 14 14 14 14 16 17 17 20 25 28 29 32 34 37 39 41 41 40 39 40 40 40 41 41 40 40 40 39 39 39 39 38 36 35 34 34 33 33 33 32 32 32 32 31 31 31 30 28 27 25 24 24 24 24 23 22 21 20 20 21 21 21
16 17 16 17 17 17 16 16 19 26 29 32 35 37 39 40 41 40 40 40 40 40 39 40 41 41 40 40 39 39 39 39 38 38 37 36 35 33 32 32 32 32 32 32 32 31 31 30 29 28 27 25 25 25 25 24 23 22 21 20 21 21 21
17 18 16 16 16 15 15 15 19 25 29 32 35 37 38 40 39 39 40 40 41 41 41 41 41 40 40 39 39 38 39 39 39 38 37 36 34 32 32 33 33 33 33 33 32 31 31 30 30 29 28 28 27 26 26 26 25 24 22 22 22 22 22
15 16 15 15 15 15 16 16 20 27 31 33 35 36 36 37 38 39 39 39 39 40 40 40 40 40 39 39 38 37 37 38 38 38 37 36 34 33 33 34 33 33 33 32 31 31 31 30 30 30 29 29 28 28 28 27 26 26 24 24 23 23 23
14 15 16 17 16 16 17 18 21 28 32 33 32 32 32 35 37 38 38 38 39 39 38 39 39 39 39 38 38 37 37 37 38 37 36 35 34 34 35 34 33 33 32 31 31 31 31 31 30 30 30 29 29 28 28 28 28 27 27 26 25 24 24
15 15 16 18 17 17 17 17 19 25 28 28 28 29 32 35 36 37 38 39 39 38 38 39 39 39 39 38 38 38 38 37 37 37 36 35 35 35 35 34 34 33 32 31 31 31 31 32 31 31 31 30 30 29 29 29 28 28 28 27 27 26 26
15 15 16 17 17 17 16 16 18 22 25 28 30 32 34 35 35 37 38 38 38 38 39 40 40 40 39 38 38 38 38 37 37 37 36 36 36 36 36 35 33 33 32 32 32 32 32 33 33 33 33 32 31 30 30 30 29 29 28 28 28 28 27
14 14 15 16 16 15 15 14 15 16 19 24 28 30 32 34 34 35 37 37 38 39 39 39 39 39 38 38 38 37 37 37 36 36 36 36 37 36 36 35 33 32 32 32 32 32 33 33 33 33 33 33 33 32 31 31 31 30 29 29 29 28 28
12 13 13 14 15 15 14 13 13 13 15 21 26 28 31 33 34 35 36 37 38 38 39 39 38 38 38 38 37 37 37 37 36 36 36 37 37 37 36 35 33 32 33 33 33 33 33 34 34 34 34 34 34 34 33 33 32 32 31 31 30 29 29
11 11 12 15 15 15 14 14 14 15 16 21 26 28 30 32 33 34 35 36 37 37 38 38 38 38 38 38 37 37 37 37 36 36 37 37 38 37 36 35 34 34 34 34 34 34 34 34 34 34 35 35 35 35 34 34 33 33 32 31 31 30 30
10 11 12 14 14 14 14 14 16 17 17 21 27 28 30 32 33 33 34 35 36 37 37 38 38 38 38 38 37 37 37 38 38 38 38 38 38 37 36 36 35 35 35 35 34 34 34 34 34 35 35 36 36 35 35 34 34 34 33 32 32 32 32
12 13 13 13 13 14 15 16 17 17 17 20 25 27 28 30 31 33 34 35 35 36 37 37 37 38 38 37 37 37 38 39 39 39 38 38 37 36 36 36 36 36 35 35 34 35 35 35 35 35 35 35 35 35 35 34 34 34 34 33 33 33 33
13 16 15 14 14 15 16 16 16 17 17 19 23 26 26 28 30 31 31 33 34 35 37 37 37 38 37 37 37 38 39 38 38 38 37 36 35 36 36 36 36 36 35 35 35 36 36 35 35 34 34 34 35 34 34 34 35 35 35 35 34 34 34
16 17 16 15 16 16 17 17 17 18 17 17 20 24 26 27 30 31 32 33 35 35 36 37 37 37 36 36 38 38 38 37 36 35 35 35 36 36 36 36 35 35 35 35 36 36 35 34 34 34 34 35 34 34 33 34 36 37 37 36 35 34 34
16 16 15 16 17 17 17 16 16 16 16 17 21 26 28 29 31 32 32 32 34 35 36 37 36 36 36 36 36 36 35 35 35 34 35 36 36 36 36 36 35 35 36 36 36 36 35 34 34 35 35 35 34 34 34 35 37 37 37 37 36 35 34
14 14 14 15 16 15 16 16 15 17 17 18 23 27 28 29 29 30 31 33 34 34 35 35 35 35 35 35 35 34 34 34 34 34 35 36 36 36 36 36 35 35 36 36 36 36 36 35 35 36 36 35 34 35 35 36 38 38 37 37 37 36 35
12 14 14 15 16 16 16 15 16 18 19 21 26 30 31 32 32 32 33 34 34 33 34 34 34 34 34 34 34 34 34 34 34 34 35 36 37 36 36 35 36 36 36 36 37 36 36 36 37 37 36 35 35 36 36 36 38 38 38 38 37 37 36
9 11 12 13 15 16 16 15 15 17 21 26 30 31 32 33 31 30 30 31 31 32 33 33 32 33 34 34 34 34 35 35 35 36 37 37 37 36 36 36 37 37 37 37 36 35 36 37 38 38 37 37 37 37 36 37 38 38 38 38 38 37 36
7 7 8 9 12 13 14 14 14 14 19 25 27 27 28 27 26 26 28 30 32 32 33 33 32 33 33 33 34 35 36 36 36 37 37 37 37 37 37 37 37 38 37 37 36 37 38 38 38 38 38 37 37 37 37 38 39 39 39 39 38 37 36
6 8 8 8 10 11 12 14 15 16 19 23 26 26 26 27 27 27 28 30 30 31 32 32 32 32 33 33 34 36 37 37 37 37 37 37 36 36 36 37 37 38 37 37 37 37 37 37 37 37 38 37 37 36 37 39 40 40 40 40 38 36 35
3 7 8 6 7 8 11 14 17 19 22 24 26 27 27 27 28 28 27 28 29 30 30 30 31 32 32 33 34 36 37 37 38 37 37 36 35 35 36 37 37 38 37 36 36 36 36 37 37 38 37 36 36 36 38 40 40 40 40 40 38 36 34
3 5 9 9 9 10 14 18 20 22 24 24 23 25 28 29 29 28 26 27 27 28 28 28 30 31 32 33 35 37 37 38 39 38 37 35 35 36 37 37 38 38 37 37 36 36 37 37 37 37 36 36 37 38 38 39 40 40 39 39 37 36 35
8 5 6 10 14 14 16 21 24 24 25 24 23 25 29 30 29 27 25 25 26 26 26 27 30 32 33 35 37 38 38 39 39 38 37 36 36 37 38 38 38 38 37 36 37 36 36 36 35 35 35 36 37 37 37 38 39 39 38 38 37 36 36
9 8 7 9 14 19 21 23 23 22 22 23 25 28 30 31 29 26 25 25 26 25 25 28 32 34 35 36 36 36 37 37 38 38 36 36 37 38 39 38 37 35 34 35 36 35 34 34 34 34 34 35 35 35 36 37 38 38 38 37 36 36 36
12 12 12 11 13 18 21 20 20 19 17 21 26 29 30 30 26 23 22 23 22 22 24 27 30 32 33 32 32 33 34 35 36 37 37 38 38 37 37 36 35 34 33 34 35 33 32 32 32 32 33 33 33 34 35 36 37 38 37 37 36 36 35
13 14 15 15 16 17 18 19 19 19 17 18 24 27 28 27 23 19 20 19 16 17 20 23 25 28 30 31 31 31 32 34 35 36 36 36 36 34 34 34 34 34 33 33 32 32 32 32 31 30 31 30 31 33 34 35 36 37 37 37 36 36 35
13 12 13 15 16 16 17 17 17 18 18 19 22 25 27 27 22 20 20 17 13 14 16 18 21 25 27 29 30 31 32 33 34 36 36 35 35 34 34 34 33 33 33 32 31 31 31 31 29 28 28 28 28 30 32 33 34 36 36 36 36 35 35
13 12 12 14 16 17 18 17 16 19 21 22 23 25 27 28 26 23 20 17 15 15 14 14 17 20 23 28 30 31 32 33 34 35 35 35 35 34 34 33 32 32 32 32 31 29 28 28 27 26 25 25 26 28 30 32 33 34 35 35 35 35 34
12 12 13 14 16 18 18 17 17 19 21 23 25 25 25 27 27 24 19 16 15 15 14 14 14 14 17 22 27 32 34 33 34 35 36 36 35 34 34 33 31 31 31 30 30 28 27 26 26 25 25 24 25 26 28 30 32 33 33 33 33 33 32
12 13 13 13 15 16 17 16 17 18 19 21 23 24 23 23 24 22 17 14 14 14 13 12 12 11 11 12 16 24 30 32 32 33 34 34 33 33 34 34 32 30 30 29 29 28 27 26 25 24 23 23 24 25 27 28 30 31 31 30 30 30 30
10 11 11 12 13 15 15 14 12 13 15 17 19 22 22 21 20 18 15 13 12 10 10 10 10 9 8 7 8 12 20 27 30 31 31 31 31 31 31 31 31 30 28 27 27 26 25 25 23 23 22 23 24 25 26 27 27 28 28 28 28 28 28
8 9 12 13 14 15 14 11 10 10 11 13 16 19 20 20 18 16 13 12 10 8 7 7 7 7 6 5 5 8 13 19 24 28 29 29 28 26 26 26 28 29 29 30 29 28 27 26 25 25 25 25 25 24 23 24 25 26 27 27 27 27 26
8 10 12 12 13 13 12 10 9 9 10 12 15 18 19 18 17 14 12 11 9 7 6 6 5 6 5 4 4 6 9 13 17 22 24 24 23 22 20 21 23 25 26 28 29 30 29 28 27 28 28 27 25 24 22 22 24 26 27 26 25 25 24
8 10 11 12 13 13 12 10 10 10 11 12 14 16 17 16 15 13 12 10 8 7 5 5 5 5 4 4 4 5 8 11 14 17 19 21 21 20 16 14 15 18 20 21 23 26 27 26 26 27 27 26 25 24 23 24 25 25 24 23 23 22 22
9 8 9 10 11 11 10 10 11 11 11 12 13 13 14 14 14 13 11 9 8 7 6 5 5 5 4 4 5 7 9 12 14 16 18 20 21 20 17 13 9 9 12 15 17 19 22 23 23 23 23 23 23 24 23 23 22 20 19 19 20 20 19
12 10 10 10 10 10 10 10 10 11 11 10 11 11 13 14 14 12 11 9 8 8 6 5 5 4 4 3 6 9 11 14 16 18 19 19 20 20 19 17 14 11 8 8 11 14 17 18 19 19 19 19 20 20 20 19 18 16 15 16 17 17 16
Wind_Direction
201 201 198 198 195 193 196 196 196 194 193 192 193 194 195 195 195 195 196 197 199 200 200 201 202 203 204 206 208 209 210 212 213 214 216 217 219 219 221 222 223 224 225 226 228 230 231 233 233 234 236 238 239 240 243 246 247 248 246 246 246 246 248
201 204 200 199 197 197 199 197 195 194 192 193 192 193 195 195 195 195 196 197 199 200 200 201 202 203 204 206 207 208 210 211 213 214 215 217 219 221 222 224 224 226 227 230 232 233 234 235 235 236 236 239 240 241 243 246 247 249 247 244 243 244 246
198 202 199 198 198 200 200 194 194 195 193 192 192 193 195 196 196 196 196 196 198 200 200 201 202 203 205 206 207 208 209 211 212 213 215 217 219 220 222 224 225 227 229 231 233 235 236 236 237 237 236 238 240 240 243 246 248 250 249 246 244 244 246
196 199 198 199 199 201 200 195 195 195 194 194 193 194 195 196 196 196 196 197 197 198 199 200 202 203 205 205 206 208 209 210 211 212 215 217 218 219 221 223 225 227 229 232 234 236 238 238 238 238 237 238 239 240 243 246 248 250 250 248 245 245 247
196 197 196 198 200 200 198 197 197 196 196 197 195 195 195 195 195 195 197 198 198 199 200 201 202 203 205 205 206 208 209 210 211 212 214 216 217 218 220 222 225 227 229 232 234 236 237 237 238 238 238 238 239 240 242 245 248 249 250 249 247 247 248
195 195 196 198 200 199 197 198 199 197 197 197 196 195 193 192 193 194 196 197 198 199 200 201 202 203 204 205 206 208 209 210 211 212 213 214 214 216 220 223 224 227 229 231 233 235 235 237 238 239 239 239 240 240 241 244 247 248 249 248 248 248 250
193 193 196 199 199 197 196 198 199 198 198 197 195 193 191 191 192 193 194 195 197 198 198 200 201 202 203 205 206 207 209 210 211 212 213 213 214 216 220 222 224 227 229 230 232 233 234 235 237 239 241 241 240 241 241 243 245 247 248 248 248 249 251
195 194 197 200 199 197 196 197 198 197 194 191 190 189 190 192 192 192 193 194 196 196 197 199 200 201 203 204 205 207 208 210 211 211 212 212 214 217 220 221 224 226 227 229 232 233 234 236 237 239 241 241 241 242 242 244 246 247 247 247 248 250 251
198 197 199 200 199 197 197 197 194 190 186 185 188 190 190 191 191 192 193 193 193 195 197 198 199 201 202 203 205 207 208 209 210 211 211 212 214 217 219 221 223 224 226 228 231 233 235 237 238 239 240 240 241 242 242 244 246 246 246 246 248 249 251
198 199 202 199 198 199 198 194 188 183 183 186 189 190 189 189 191 192 192 192 193 195 196 197 198 200 201 202 204 206 207 208 209 210 210 212 214 216 218 220 220 222 225 227 229 232 235 237 238 238 238 239 240 241 242 244 245 245 245 246 248 249 251
203 201 200 196 196 197 193 185 180 181 183 186 188 189 188 189 190 190 190 192 192 193 195 196 197 198 199 201 203 205 206 208 209 209 210 211 214 216 218 218 218 220 223 225 227 230 233 234 236 236 236 238 239 240 242 244 244 244 245 247 248 249 251
211 204 199 197 194 192 187 182 182 183 184 186 188 188 187 188 189 189 190 191 192 192 193 194 195 196 198 200 202 204 206 207 208 209 210 212 214 216 217 217 218 219 221 223 225 228 230 232 234 235 236 238 239 240 242 243 244 244 245 247 248 249 250
214 209 203 198 191 186 184 183 184 185 183 186 187 187 187 187 187 187 188 189 191 191 191 192 194 195 197 199 201 203 205 207 208 209 211 213 214 215 216 216 217 219 220 222 224 226 228 230 232 234 236 238 239 240 241 242 243 244 245 246 247 248 249
211 215 208 197 187 182 183 185 186 184 184 185 185 185 186 187 187 187 187 188 189 189 190 191 193 194 197 199 200 203 206 207 209 210 211 213 214 214 215 216 217 219 220 222 223 226 228 230 232 234 236 238 239 239 240 240 241 243 244 245 246 246 247
210 214 206 192 184 182 184 186 184 183 184 182 180 181 182 184 185 186 187 188 188 189 190 190 191 194 196 198 201 204 206 207 208 210 211 212 213 214 215 216 217 218 219 221 223 226 228 230 231 233 235 237 238 239 239 238 240 241 242 242 243 243 245
209 208 200 189 185 185 187 186 183 182 180 177 177 179 180 181 183 184 186 187 187 189 190 190 191 193 195 198 202 204 205 206 207 208 210 210 212 214 214 215 217 218 219 221 223 226 227 229 230 232 234 236 237 238 237 237 239 241 242 242 242 242 243
208 201 194 189 185 186 186 183 180 177 175 177 179 179 180 182 183 184 185 185 187 189 189 189 191 193 195 199 202 203 204 205 206 207 208 210 212 213 214 215 216 217 219 221 223 225 226 227 229 231 233 235 236 237 237 238 240 241 242 243 243 242 242
201 193 190 190 185 183 183 178 175 175 176 180 181 180 182 181 180 182 184 185 187 187 187 189 191 193 196 199 201 202 203 203 204 206 208 210 211 213 214 215 215 217 219 220 222 224 225 226 228 231 233 233 235 237 237 239 241 242 242 243 243 243 242
200 192 188 187 182 179 178 176 176 178 179 180 181 183 184 181 181 184 185 184 184 184 184 187 190 192 196 198 200 201 202 203 203 205 208 210 211 212 213 213 214 217 219 221 223 224 224 226 228 230 232 232 234 236 237 239 242 243 243 244 244 244 243
209 202 193 188 184 179 178 179 178 179 180 181 183 184 182 182 183 184 182 180 180 182 184 186 188 192 195 197 199 200 201 202 203 206 208 210 211 212 212 213 215 217 219 221 223 223 224 226 228 230 231 232 234 236 238 240 242 243 244 244 245 245 244
194 196 194 189 184 178 175 175 173 174 178 180 179 178 177 179 178 176 176 179 180 181 183 184 187 192 195 196 198 200 201 202 204 207 209 210 211 211 212 213 215 217 218 220 221 223 225 227 228 229 230 231 233 236 238 241 242 243 244 245 245 245 244
179 173 179 183 183 178 174 172 170 169 170 170 170 172 173 174 173 173 175 178 179 181 182 184 187 192 195 195 197 199 201 202 204 207 209 209 210 210 212 214 216 217 218 219 221 223 226 227 228 230 231 231 232 233 237 241 243 243 244 245 245 244 243
177 154 149 148 153 150 150 154 157 157 158 161 166 170 171 171 171 170 173 176 178 180 181 183 188 193 195 196 198 200 202 203 205 207 209 209 208 210 212 214 217 218 218 218 220 222 224 226 228 230 231 231 231 232 236 240 243 243 244 245 244 243 242
9 124 130 130 128 125 130 136 141 148 153 156 162 167 168 168 168 168 170 175 178 180 181 184 190 194 196 197 200 202 203 204 206 207 208 208 208 211 213 215 217 219 219 218 220 222 224 226 228 230 231 231 231 232 234 239 243 244 244 245 243 241 241
16 49 97 120 128 130 133 137 140 145 151 153 158 164 166 166 166 166 170 174 177 180 183 187 192 196 199 201 203 204 204 205 207 208 208 208 210 213 215 216 218 219 219 219 221 223 225 226 227 229 231 232 233 234 235 238 243 244 244 244 243 241 240
24 33 53 92 116 126 130 135 138 143 150 155 159 163 165 166 167 168 171 173 176 182 186 191 196 200 202 204 204 205 205 206 207 209 209 210 212 215 216 217 218 219 218 220 222 224 226 226 227 229 231 232 233 234 235 237 241 243 244 244 242 240 239
33 42 48 61 90 111 117 121 125 128 137 151 157 161 165 166 166 166 168 171 175 183 190 194 198 202 205 206 206 206 207 208 209 210 212 213 215 216 217 218 218 218 218 219 221 223 225 226 226 228 231 232 232 234 235 236 240 242 243 243 242 241 239
34 42 47 54 69 89 100 103 105 106 114 137 152 158 161 158 152 151 156 158 163 176 186 193 197 201 206 208 209 209 209 209 211 212 214 215 216 215 217 219 219 219 219 219 220 222 224 225 226 227 230 232 232 234 235 237 239 242 242 243 243 242 240
31 35 42 50 56 71 87 92 92 92 98 117 136 145 149 144 133 130 134 133 137 155 172 186 195 200 205 209 211 213 211 211 212 213 215 216 215 215 217 219 218 218 218 218 218 220 222 224 224 225 228 230 231 233 236 237 240 241 242 243 243 243 243
28 30 40 49 52 62 74 80 82 83 86 97 112 125 133 132 122 117 118 118 122 134 146 162 178 191 202 207 212 215 216 215 214 214 215 216 215 215 217 218 217 217 217 217 216 217 221 223 223 222 225 228 230 232 234 236 239 241 243 243 244 245 246
23 24 34 45 50 57 65 73 79 81 79 83 93 102 114 119 116 111 111 113 118 124 132 141 151 166 185 199 208 213 215 217 217 216 216 216 214 213 215 215 215 214 214 214 214 215 218 220 220 220 222 225 228 231 233 235 237 240 242 243 245 247 249
20 22 28 35 42 51 60 67 75 79 79 79 84 90 96 104 107 106 107 111 115 121 129 136 139 143 151 171 195 207 212 215 217 218 219 218 215 214 215 215 213 212 212 212 211 213 215 217 218 219 220 224 228 230 233 234 235 237 239 241 243 246 248
16 17 20 27 39 50 56 58 62 73 79 79 83 87 89 91 94 97 101 105 109 117 127 132 136 137 136 140 164 190 204 211 214 216 218 218 216 215 216 215 213 211 210 208 208 210 212 214 216 216 216 221 226 229 232 234 233 234 236 237 239 241 243
12 15 20 28 42 53 56 54 53 63 76 81 84 87 86 84 84 86 93 99 104 114 124 128 131 131 130 136 149 167 191 205 211 213 215 216 216 215 214 213 212 211 211 210 209 208 208 210 213 214 215 218 221 224 227 230 231 233 235 237 238 239 240
11 17 20 26 40 51 55 56 57 61 69 76 82 84 82 80 79 80 85 91 94 103 117 125 131 133 136 143 150 163 181 195 205 210 210 209 207 207 207 209 210 210 212 214 214 212 211 212 214 216 218 219 220 221 220 223 232 238 240 240 240 239 239
13 15 20 30 45 52 54 57 59 60 62 67 74 79 79 76 76 78 82 85 86 90 104 118 124 133 149 157 155 164 176 185 194 200 200 196 194 191 189 195 205 209 209 212 214 216 217 219 221 224 224 222 222 223 223 228 238 244 242 239 237 236 236
15 15 22 34 47 54 52 53 55 54 53 57 65 72 73 70 70 74 80 85 87 90 101 115 121 125 139 156 163 166 173 179 182 185 186 186 184 180 172 165 169 186 198 204 209 212 214 218 223 228 229 227 226 226 226 230 238 243 239 232 229 228 228
16 21 30 36 42 47 46 44 44 41 40 47 57 65 66 63 63 68 78 85 86 87 94 102 102 100 103 130 159 166 171 175 175 175 177 176 172 172 169 158 142 132 141 174 194 200 204 209 213 218 222 225 227 227 227 228 229 231 229 222 219 218 217